EST,Max TemperatureF,Mean TemperatureF,Min TemperatureF,Max Dew PointF,MeanDew PointF,Min DewpointF,Max Humidity, Mean Humidity, Min Humidity, Max Sea Level PressureIn, Mean Sea Level PressureIn, Min Sea Level PressureIn, Max VisibilityMiles, Mean VisibilityMiles, Min VisibilityMiles, Max Wind SpeedMPH, Mean Wind SpeedMPH, Max Gust SpeedMPH,PrecipitationIn, CloudCover, Events, WindDirDegrees
2011-12-1,44,36,27,30,27,24,92,75,57,30.40,30.33,30.23,10,7,0,10,3,13,0.00,3,Fog,219
2011-12-2,45,37,28,31,28,25,92,75,58,30.57,30.42,30.28,10,8,1,16,5,21,0.00,2,,298
2011-12-3,54,42,29,35,29,25,85,65,44,30.56,30.48,30.35,10,10,7,10,5,13,0.00,0,,120
2011-12-4,61,52,42,34,28,22,57,41,25,30.32,30.27,30.22,10,10,10,15,9,30,0.00,4,,179
2011-12-5,61,56,51,49,43,31,89,62,35,30.22,30.12,30.00,10,9,4,10,7,18,0.20,7,Rain,152
2011-12-6,54,47,39,52,40,37,96,91,86,30.09,30.02,29.98,10,5,1,15,7,20,0.12,8,Rain,334
2011-12-7,39,35,31,38,32,21,92,81,69,30.06,29.93,29.83,10,8,1,18,8,26,0.19,8,Rain-Snow,316
2011-12-8,35,32,28,30,24,21,78,72,66,30.31,30.23,30.03,10,9,0,15,8,23,0.00,4,Fog,218
2011-12-9,42,35,27,29,26,22,92,70,48,30.32,30.26,30.21,10,10,9,17,7,23,0.00,5,,221
2011-12-10,34,28,22,28,14,7,85,62,39,30.56,30.45,30.28,10,10,9,15,8,21,0.00,2,,275
2011-12-11,38,28,18,14,11,9,80,56,32,30.66,30.58,30.52,10,10,10,8,2,12,0.00,0,,162
2011-12-12,42,31,19,21,18,11,91,68,44,30.53,30.49,30.47,10,10,8,7,1,8,0.00,0,,185
2011-12-13,46,35,23,28,24,19,88,67,45,30.53,30.47,30.41,10,10,7,9,2,12,T,5,,191
2011-12-14,50,44,37,45,37,27,100,78,55,30.40,30.27,30.07,10,8,2,14,6,17,0.08,6,Rain,160
2011-12-15,56,48,40,54,47,31,100,81,61,30.07,29.90,29.79,10,8,2,31,18,41,0.36,7,Rain,230
2011-12-16,40,36,32,28,25,23,76,68,59,30.32,30.23,30.07,10,10,10,24,8,31,0.00,8,,272
2011-12-17,32,30,28,27,24,20,92,78,63,30.30,30.22,30.18,10,5,1,13,7,16,T,8,Snow,252
2011-12-18,33,31,28,27,25,23,92,81,69,30.31,30.24,30.17,10,6,1,14,7,17,0.03,6,Snow,228
2011-12-19,44,38,31,37,29,24,78,68,58,30.19,30.11,30.03,10,10,10,22,13,31,T,6,Rain,215
2011-12-20,46,42,37,43,39,36,100,91,82,30.18,30.09,29.97,10,6,1,16,4,23,0.28,8,Rain,183
2011-12-21,59,51,42,54,48,39,100,86,71,29.99,29.80,29.64,10,7,0,32,11,45,0.85,7,Fog-Rain,220
2011-12-22,49,44,39,43,41,37,96,84,71,30.11,30.02,29.92,10,8,2,17,5,23,0.40,8,Rain,332
2011-12-23,39,35,31,37,32,27,100,91,82,30.32,30.20,29.97,10,8,2,15,6,20,0.05,8,Rain-Snow,305
2011-12-24,39,34,29,28,26,24,92,76,59,30.46,30.39,30.32,10,10,10,12,5,15,0.01,6,,207
2011-12-25,45,38,30,28,26,24,85,65,45,30.31,30.19,30.03,10,10,10,29,12,38,0.00,1,,225
2011-12-26,43,37,31,27,25,24,85,67,49,30.41,30.27,30.04,10,10,10,16,7,22,0.00,4,,219
2011-12-27,43,38,33,41,34,22,100,74,48,30.00,29.58,29.35,10,7,1,24,11,33,0.64,7,Rain-Snow,179
2011-12-28,34,29,23,32,21,15,96,75,53,30.06,29.91,29.63,10,10,5,28,11,38,0.01,6,Rain,279
2011-12-29,43,32,20,29,24,17,85,69,53,30.04,29.91,29.78,10,10,10,22,10,28,0.01,5,,180
2011-12-30,53,47,40,41,35,28,82,68,53,29.93,29.81,29.70,10,10,10,25,11,32,0.02,5,Rain,199
2011-12-31,45,42,39,39,37,35,100,88,76,30.14,29.97,29.74,10,9,2,22,9,29,0.02,8,Rain,246